Data for 02/11/2017

Time Sea-Level Adjusted Pressure Absolute Pressure Temperature Relative Humidity Dew Point   
(mb) (inHg) (mb) (inHg) (C) (F) (%) (C) (F)
00:05 1012 29.88 841 24.83 2.9 37.2 35 -11 12.1
00:10 1012 29.88 841 24.83 2.8 37.1 34 -11.5 11.3
00:15 1012 29.88 841 24.83 3 37.4 35 -11.1 12
00:20 1012 29.88 841 24.83 3 37.3 35 -11.1 12.1
00:25 1012 29.88 841 24.83 3 37.3 34 -11.3 11.7
00:30 1012 29.88 841 24.83 3.2 37.7 35 -10.9 12.3
00:35 1012 29.88 841 24.83 3 37.4 36 -10.7 12.7
00:40 1012 29.88 841 24.83 3.1 37.5 35 -11.1 12.1
00:45 1012 29.88 841 24.83 3.2 37.8 35 -10.8 12.5
00:50 1012 29.88 841 24.83 3.2 37.7 36 -10.6 12.9
00:55 1012 29.88 841 24.83 3.1 37.5 37 -10.4 13.3
01:00 1012 29.88 841 24.83 2.9 37.3 38 -10.1 13.7
01:05 1012 29.88 841 24.83 2.7 36.8 40 -9.7 14.5
01:10 1012 29.88 841 24.83 2.4 36.4 40 -9.9 14.2
01:15 1012 29.88 841 24.83 2.5 36.5 40 -9.7 14.5
01:20 1012 29.88 841 24.83 2.6 36.8 39 -10 14
01:25 1012 29.88 842 24.86 2.9 37.2 41 -9.2 15.4
01:30 1013 29.91 842 24.86 2.5 36.5 50 -6.9 19.6
01:35 1013 29.91 842 24.86 1.6 34.9 60 -5.3 22.5
01:40 1013 29.91 843 24.89 0.8 33.5 68 -4.5 24
01:45 1014 29.94 843 24.89 0.3 32.5 72 -4.2 24.4
01:50 1014 29.94 843 24.89 -0.1 31.9 74 -4.2 24.4
01:55 1014 29.94 843 24.89 -0.2 31.6 74 -4.3 24.2
02:00 1014 29.94 843 24.89 -0.3 31.4 75 -4.3 24.3
02:05 1014 29.94 843 24.89 -0.4 31.2 75 -4.3 24.2
02:10 1014 29.94 843 24.89 -0.5 31.1 75 -4.4 24.1
02:15 1014 29.94 843 24.89 -0.5 31 73 -4.8 23.4
02:20 1014 29.94 843 24.89 -0.5 31 71 -5.1 22.8
02:25 1014 29.94 843 24.89 -0.4 31.2 69 -5.4 22.4
02:30 1014 29.94 844 24.92 -0.4 31.2 69 -5.4 22.2
02:35 1015 29.97 844 24.92 -0.4 31.3 69 -5.4 22.2
02:40 1015 29.97 844 24.92 -0.3 31.5 70 -5.1 22.7
02:45 1015 29.97 844 24.92 -0.4 31.2 75 -4.4 24.2
02:50 1014 29.94 844 24.92 -0.9 30.4 77 -4.4 24
02:55 1015 29.97 844 24.92 -0.9 30.4 75 -4.8 23.4
03:00 1015 29.97 844 24.92 -0.8 30.5 75 -4.8 23.4
03:05 1015 29.97 844 24.92 -0.9 30.5 75 -4.8 23.3
03:10 1015 29.97 844 24.92 -0.8 30.6 75 -4.7 23.5
03:15 1015 29.97 844 24.92 -0.7 30.8 73 -5 23
03:20 1015 29.97 844 24.92 -0.7 30.8 73 -5 23
03:25 1015 29.97 844 24.92 -0.8 30.6 72 -5.2 22.6
03:30 1015 29.97 844 24.92 -0.8 30.5 73 -5.1 22.9
03:35 1015 29.97 844 24.92 -0.8 30.5 75 -4.7 23.6
03:40 1015 29.97 844 24.92 -0.9 30.4 75 -4.7 23.5
03:45 1015 29.97 844 24.92 -0.9 30.4 75 -4.7 23.5
03:50 1015 29.97 844 24.92 -0.9 30.4 76 -4.7 23.6
03:55 1015 29.97 844 24.92 -1 30.1 76 -4.7 23.5
04:00 1015 29.97 844 24.92 -1.1 30 76 -4.8 23.4
04:05 1015 29.97 844 24.92 -1.1 30 76 -4.8 23.4
04:10 1015 29.97 844 24.92 -1 30.2 76 -4.7 23.5
04:15 1015 29.97 844 24.92 -0.8 30.5 75 -4.7 23.5
04:20 1015 29.97 844 24.92 -0.7 30.7 75 -4.7 23.6
04:25 1015 29.97 844 24.92 -0.6 30.9 75 -4.6 23.7
04:30 1015 29.97 844 24.92 -0.6 30.8 75 -4.6 23.8
04:35 1015 29.97 844 24.92 -0.7 30.7 75 -4.6 23.7
04:40 1015 29.97 844 24.92 -0.7 30.7 75 -4.6 23.7
04:45 1015 29.97 844 24.92 -0.9 30.5 76 -4.7 23.6
04:50 1015 29.97 844 24.92 -1 30.2 76 -4.7 23.6
04:55 1015 29.97 844 24.92 -1.2 29.9 77 -4.8 23.4
05:00 1015 29.97 845 24.95 -1.3 29.7 77 -4.9 23.2
05:05 1015 29.97 845 24.95 -1.3 29.6 77 -4.9 23.3
05:10 1015 29.97 845 24.95 -1.1 29.9 76 -4.8 23.3
05:15 1016 30 845 24.95 -0.9 30.3 75 -4.8 23.4
05:20 1016 30 845 24.95 -0.8 30.5 75 -4.8 23.4
05:25 1016 30 845 24.95 -0.9 30.5 75 -4.8 23.4
05:30 1016 30 845 24.95 -0.9 30.4 75 -4.8 23.4
05:35 1016 30 845 24.95 -1 30.3 75 -4.8 23.4
05:40 1016 30 845 24.95 -1 30.2 76 -4.7 23.5
05:45 1016 30 845 24.95 -1 30.1 76 -4.7 23.5
05:50 1016 30 845 24.95 -1.1 30.1 77 -4.7 23.6
05:55 1016 30 845 24.95 -1.2 29.9 76 -4.8 23.3
06:00 1016 30 846 24.98 -1.2 29.9 76 -5 23.1
06:05 1016 30 846 24.98 -1.1 29.9 73 -5.3 22.4
06:10 1016 30 846 24.98 -1.1 30.1 73 -5.4 22.4
06:15 1016 30 846 24.98 -1.1 30 72 -5.6 21.9
06:20 1016 30 846 24.98 -1.3 29.7 72 -5.7 21.7
06:25 1016 30 845 24.95 -1.4 29.5 68 -6.4 20.4
06:30 1016 30 845 24.95 -1.4 29.6 63 -7.5 18.5
06:35 1016 30 845 24.95 -1.2 29.8 62 -7.5 18.4
06:40 1016 30 845 24.95 -1.1 29.9 61 -7.8 18
06:45 1016 30 845 24.95 -1 30.1 60 -7.9 17.8
06:50 1016 30 846 24.98 -1 30.2 60 -7.7 18.1
06:55 1016 30 846 24.98 -1 30.1 64 -6.9 19.5
07:00 1016 30 846 24.98 -1.5 29.2 67 -6.9 19.6
07:05 1016 30 846 24.98 -1.9 28.5 68 -7 19.4
07:10 1017 30.03 846 24.98 -2.2 28.1 70 -7 19.4
07:15 1017 30.03 846 24.98 -2.3 27.9 70 -7 19.5
07:20 1017 30.03 846 24.98 -2.4 27.7 71 -7 19.4
07:25 1017 30.03 846 24.98 -2.4 27.7 69 -7.4 18.7
07:30 1017 30.03 846 24.98 -2.2 28.1 66 -7.6 18.3
07:35 1017 30.03 846 24.98 -1.7 28.9 62 -8.1 17.4
07:40 1017 30.03 847 25.01 -1.7 28.9 62 -8 17.6
07:45 1017 30.03 847 25.01 -1.6 29.1 59 -8.7 16.4
07:50 1018 30.06 847 25.01 -1.5 29.4 56 -9.2 15.4
07:55 1018 30.06 847 25.01 -1.2 29.8 53 -9.5 14.8
08:00 1018 30.06 847 25.01 -1.2 29.9 53 -9.5 14.9
08:05 1018 30.06 847 25.01 -1.2 29.8 53 -9.7 14.6
08:10 1018 30.06 847 25.01 -1.2 29.8 53 -9.6 14.8
08:15 1018 30.06 847 25.01 -1.3 29.7 53 -9.8 14.4
08:20 1018 30.06 847 25.01 -1.3 29.7 51 -10.2 13.7
08:25 1018 30.06 847 25.01 -1.2 29.8 50 -10.4 13.2
08:30 1018 30.06 847 25.01 -1.1 30 48 -10.7 12.7
08:35 1018 30.06 848 25.04 -1 30.1 48 -10.6 12.9
08:40 1018 30.06 848 25.04 -0.9 30.3 47 -10.9 12.3
08:45 1018 30.06 848 25.04 -0.8 30.5 47 -10.8 12.5
08:50 1018 30.06 848 25.04 -0.9 30.4 48 -10.7 12.8
08:55 1019 30.09 848 25.04 -0.9 30.5 48 -10.6 13
09:00 1019 30.09 848 25.04 -0.8 30.5 47 -10.8 12.5
09:05 1019 30.09 848 25.04 -0.8 30.5 46 -11.1 12
09:10 1019 30.09 848 25.04 -0.9 30.4 47 -10.8 12.5
09:15 1019 30.09 848 25.04 -0.9 30.4 45 -11.4 11.5
09:20 1019 30.09 848 25.04 -0.9 30.4 45 -11.5 11.3
09:25 1019 30.09 848 25.04 -0.9 30.4 44 -11.6 11.1
09:30 1019 30.09 849 25.07 -1 30.2 45 -11.4 11.6
09:35 1019 30.09 849 25.07 -1.1 30.1 46 -11.3 11.6
09:40 1019 30.09 849 25.07 -0.9 30.4 44 -11.6 11.1
09:45 1020 30.12 849 25.07 -0.5 31.1 43 -11.5 11.3
09:50 1020 30.12 849 25.07 -0.5 31.2 44 -11.3 11.7
09:55 1020 30.12 849 25.07 -0.4 31.3 42 -11.8 10.7
10:00 1020 30.12 849 25.07 -0.3 31.5 41 -12.1 10.2
10:05 1020 30.12 849 25.07 -0.2 31.7 39 -12.5 9.5
10:10 1020 30.12 849 25.07 0.6 33 38 -12.2 10
10:15 1020 30.12 850 25.1 1.2 34.2 39 -11.2 11.9
10:20 1020 30.12 850 25.1 0.5 32.9 41 -11.2 11.9
10:25 1020 30.12 850 25.1 0.2 32.3 42 -11.2 11.8
10:30 1020 30.12 850 25.1 -0.1 31.9 43 -11.1 11.9
10:35 1021 30.15 850 25.1 -0.2 31.7 43 -11.3 11.6
10:40 1021 30.15 850 25.1 -0.2 31.7 43 -11.4 11.6
10:45 1021 30.15 850 25.1 -0.2 31.6 42 -11.7 10.9
10:50 1021 30.15 850 25.1 -0.2 31.6 42 -11.5 11.3
10:55 1021 30.15 850 25.1 0.3 32.6 41 -11.6 11.2
11:00 1021 30.15 850 25.1 0.6 33.2 40 -11.6 11.2
11:05 1021 30.15 851 25.13 1.1 34 39 -11.5 11.4
11:10 1022 30.18 851 25.13 1.3 34.4 37 -11.8 10.7
11:15 1022 30.18 851 25.13 1.2 34.2 37 -11.8 10.8
11:20 1022 30.18 851 25.13 1.3 34.4 37 -11.9 10.6
11:25 1022 30.18 851 25.13 1.4 34.6 34 -12.7 9.2
11:30 1022 30.18 852 25.16 1.6 34.9 32 -13.5 7.7
11:35 1023 30.21 852 25.16 1.8 35.2 32 -13.3 8.1
11:40 1023 30.21 852 25.16 1.8 35.2 33 -13 8.6
11:45 1023 30.21 852 25.16 1.5 34.6 33 -13.3 8.1
11:50 1023 30.21 852 25.16 1.6 34.8 33 -12.9 8.8
11:55 1023 30.21 852 25.16 1.4 34.5 34 -12.9 8.8
12:00 1023 30.21 852 25.16 1.5 34.7 32 -13.5 7.6
12:05 1023 30.21 852 25.16 1.6 34.9 32 -13.5 7.7
12:10 1023 30.21 852 25.16 1.7 35.1 31 -13.6 7.6
12:15 1023 30.21 852 25.16 1.9 35.3 33 -12.9 8.7
12:20 1022 30.18 852 25.16 1.7 35.1 33 -12.9 8.8
12:25 1023 30.21 852 25.16 1.8 35.3 33 -12.7 9.2
12:30 1023 30.21 852 25.16 2 35.5 35 -12 10.4
12:35 1023 30.21 852 25.16 1.8 35.3 36 -11.7 11
12:40 1022 30.18 852 25.16 1.6 35 37 -11.6 11.2
12:45 1022 30.18 852 25.16 1.4 34.6 35 -12.4 9.7
12:50 1023 30.21 852 25.16 1.5 34.6 37 -11.9 10.6
12:55 1023 30.21 852 25.16 1.5 34.8 40 -10.7 12.7
13:00 1023 30.21 852 25.16 1.8 35.3 39 -10.6 12.9
13:05 1023 30.21 852 25.16 2.1 35.7 38 -10.7 12.8
13:10 1023 30.21 852 25.16 2.1 35.9 37 -11 12.2
13:15 1023 30.21 852 25.16 1.9 35.5 38 -10.9 12.3
13:20 1023 30.21 852 25.16 1.8 35.3 39 -10.8 12.5
13:25 1023 30.21 852 25.16 1.8 35.2 39 -10.6 12.9
13:30 1023 30.21 852 25.16 1.8 35.2 38 -11.2 11.8
13:35 1023 30.21 852 25.16 2.3 36.1 38 -10.8 12.6
13:40 1023 30.21 852 25.16 2.2 35.9 36 -11.6 11.2
13:45 1023 30.21 852 25.16 1.7 35 37 -11.6 11.2
13:50 1023 30.21 853 25.19 1.5 34.8 36 -11.9 10.6
13:55 1023 30.21 853 25.19 1.5 34.8 37 -11.8 10.8
14:00 1024 30.24 853 25.19 1.8 35.2 36 -11.6 11
14:05 1024 30.24 853 25.19 2 35.6 36 -11.6 11.1
14:10 1024 30.24 853 25.19 2.2 36 36 -11.5 11.4
14:15 1024 30.24 853 25.19 2.1 35.9 36 -11.4 11.5
14:20 1024 30.24 853 25.19 2.4 36.3 36 -11.2 11.8
14:25 1024 30.24 853 25.19 2.4 36.4 36 -11.1 12
14:30 1024 30.24 853 25.19 2.3 36.2 34 -12 10.5
14:35 1024 30.24 853 25.19 2.5 36.4 34 -12 10.4
14:40 1024 30.24 853 25.19 2.5 36.4 34 -11.7 10.9
14:45 1024 30.24 853 25.19 2.6 36.6 34 -11.9 10.6
14:50 1024 30.24 853 25.19 2.2 36 35 -11.8 10.8
14:55 1024 30.24 853 25.19 2.4 36.4 34 -12 10.3
15:00 1024 30.24 853 25.19 2.7 36.9 34 -11.7 10.9
15:05 1024 30.24 853 25.19 2.5 36.6 34 -11.8 10.7
15:10 1024 30.24 853 25.19 2.5 36.5 34 -12 10.4
15:15 1024 30.24 854 25.22 2.7 36.9 32 -12.4 9.7
15:20 1024 30.24 854 25.22 2.5 36.5 33 -12.1 10.1
15:25 1024 30.24 854 25.22 2.4 36.3 33 -12.2 10.1
15:30 1025 30.27 854 25.22 2.4 36.4 32 -12.5 9.5
15:35 1025 30.27 854 25.22 2.4 36.4 33 -12.4 9.6
15:40 1025 30.27 854 25.22 2.3 36.2 33 -12.3 9.9
15:45 1025 30.27 854 25.22 2.2 36 35 -11.9 10.6
15:50 1025 30.27 854 25.22 2.6 36.7 32 -12.5 9.5
15:55 1025 30.27 854 25.22 2.6 36.6 31 -12.9 8.8
16:00 1025 30.27 854 25.22 2.4 36.3 33 -12.4 9.6
16:05 1025 30.27 854 25.22 2.5 36.5 32 -12.7 9.2
16:10 1025 30.27 854 25.22 2.7 36.8 31 -12.9 8.8
16:15 1025 30.27 854 25.22 2.7 36.9 31 -12.8 9
16:20 1025 30.27 854 25.22 2.6 36.6 31 -12.8 9
16:25 1025 30.27 854 25.22 2.3 36.1 30 -13.5 7.7
16:30 1025 30.27 854 25.22 2.3 36.1 31 -13.4 7.9
16:35 1025 30.27 854 25.22 2.2 36 30 -13.5 7.8
16:40 1025 30.27 854 25.22 2.3 36.2 32 -12.8 9
16:45 1025 30.27 854 25.22 2.1 35.8 32 -12.9 8.8
16:50 1025 30.27 854 25.22 1.9 35.5 32 -13.2 8.2
16:55 1025 30.27 855 25.25 2 35.6 33 -12.8 8.9
17:00 1025 30.27 855 25.25 2 35.6 33 -12.8 9
17:05 1025 30.27 855 25.25 2.1 35.7 33 -12.7 9.1
17:10 1026 30.3 855 25.25 2.1 35.8 34 -12.3 9.8
17:15 1026 30.3 855 25.25 2 35.7 34 -12.4 9.7
17:20 1026 30.3 855 25.25 2 35.6 34 -12.5 9.6
17:25 1026 30.3 855 25.25 1.6 34.9 38 -11.3 11.7
17:30 1026 30.3 855 25.25 0.9 33.6 41 -11 12.2
17:35 1026 30.3 855 25.25 1 33.8 40 -11.2 11.9
17:40 1026 30.3 855 25.25 1.1 34 41 -10.7 12.8
17:45 1026 30.3 855 25.25 0.7 33.2 44 -10.3 13.4
17:50 1026 30.3 855 25.25 0.1 32.2 44 -10.6 12.8
17:55 1026 30.3 855 25.25 -0.6 30.9 44 -11.5 11.2
18:00 1026 30.3 855 25.25 -0.9 30.4 46 -11.1 12
18:05 1026 30.3 855 25.25 -0.6 30.9 43 -11.7 11
18:10 1026 30.3 856 25.28 -0.5 31.1 46 -10.8 12.6
18:15 1026 30.3 856 25.28 -0.6 31 46 -10.8 12.6
18:20 1026 30.3 856 25.28 -0.7 30.8 46 -11 12.1
18:25 1026 30.3 856 25.28 -0.7 30.8 45 -11.3 11.7
18:30 1027 30.33 856 25.28 -0.9 30.4 48 -10.6 12.9
18:35 1027 30.33 856 25.28 -2.1 28.3 49 -11.5 11.3
18:40 1027 30.33 856 25.28 -2.3 27.8 49 -11.6 11
18:45 1027 30.33 856 25.28 -2 28.4 45 -12.5 9.6
18:50 1027 30.33 856 25.28 -1.5 29.3 45 -12 10.4
18:55 1027 30.33 856 25.28 -1.2 29.8 45 -11.7 10.9
19:00 1027 30.33 856 25.28 -1.1 30 43 -12.3 9.9
19:05 1027 30.33 856 25.28 -1.4 29.5 48 -11 12.1
19:10 1027 30.33 856 25.28 -2.8 26.9 51 -11.6 11
19:15 1027 30.33 856 25.28 -3.1 26.4 50 -12.1 10.3
19:20 1027 30.33 857 25.31 -2.6 27.4 45 -12.9 8.8
19:25 1027 30.33 857 25.31 -2.1 28.1 45 -12.7 9.2
19:30 1027 30.33 857 25.31 -1.5 29.2 44 -12.4 9.8
19:35 1027 30.33 857 25.31 -1.4 29.5 42 -12.6 9.3
19:40 1028 30.36 857 25.31 -1.7 29 47 -11.5 11.3
19:45 1028 30.36 857 25.31 -3 26.7 52 -11.6 11.1
19:50 1028 30.36 857 25.31 -3 26.6 47 -12.9 8.7
19:55 1028 30.36 857 25.31 -2.7 27.1 46 -12.8 8.9
20:00 1028 30.36 857 25.31 -2.3 27.8 45 -12.7 9.2
20:05 1028 30.36 857 25.31 -2.3 27.8 45 -12.7 9.2
20:10 1028 30.36 857 25.31 -2.5 27.4 46 -12.6 9.3
20:15 1028 30.36 857 25.31 -2.6 27.2 46 -12.8 8.9
20:20 1028 30.36 857 25.31 -2.7 27.1 47 -12.5 9.6
20:25 1028 30.36 857 25.31 -3.5 25.7 50 -12.4 9.7
20:30 1028 30.36 857 25.31 -3.6 25.4 49 -12.8 8.9
20:35 1028 30.36 857 25.31 -3.5 25.6 48 -12.9 8.7
20:40 1028 30.36 857 25.31 -3.5 25.7 48 -13 8.7
20:45 1028 30.36 857 25.31 -3.5 25.7 49 -12.8 9
20:50 1028 30.36 857 25.31 -3.7 25.4 48 -13.1 8.5
20:55 1028 30.36 857 25.31 -3.4 25.9 48 -13 8.6
21:00 1028 30.36 857 25.31 -3 26.6 45 -13.3 8.1
21:05 1028 30.36 857 25.31 -2.5 27.4 45 -12.9 8.7
21:10 1028 30.36 857 25.31 -2.4 27.6 45 -12.8 9
21:15 1028 30.36 857 25.31 -2.5 27.5 46 -12.5 9.4
21:20 1028 30.36 858 25.34 -2.6 27.3 46 -12.8 9
21:25 1029 30.39 858 25.34 -3.2 26.2 51 -12 10.4
21:30 1029 30.39 858 25.34 -3.8 25.1 52 -12.4 9.7
21:35 1029 30.39 858 25.34 -3.5 25.6 50 -12.6 9.3
21:40 1029 30.39 858 25.34 -3.4 25.8 48 -12.9 8.8
21:45 1029 30.39 858 25.34 -3.4 25.8 49 -12.6 9.2
21:50 1029 30.39 858 25.34 -3.7 25.3 49 -12.8 8.9
21:55 1029 30.39 858 25.34 -3.7 25.3 49 -13 8.6
22:00 1029 30.39 858 25.34 -3.7 25.4 49 -12.8 8.9
22:05 1029 30.39 858 25.34 -3.5 25.7 49 -12.7 9.1
22:10 1029 30.39 858 25.34 -3.8 25.2 50 -12.7 9.1
22:15 1029 30.39 858 25.34 -4.1 24.6 52 -12.6 9.4
22:20 1029 30.39 858 25.34 -4.5 23.9 54 -12.4 9.7
22:25 1029 30.39 858 25.34 -4.5 23.8 53 -12.8 8.9
22:30 1029 30.39 858 25.34 -4.5 23.8 53 -12.8 9
22:35 1029 30.39 858 25.34 -4.7 23.5 54 -12.6 9.3
22:40 1029 30.39 858 25.34 -4.6 23.7 55 -12.4 9.6
22:45 1029 30.39 858 25.34 -4.5 24 52 -12.9 8.7
22:50 1029 30.39 858 25.34 -4.2 24.4 53 -12.3 9.8
22:55 1029 30.39 858 25.34 -4.6 23.7 54 -12.5 9.5
23:00 1029 30.39 858 25.34 -5.1 22.8 56 -12.7 9.2
23:05 1029 30.39 858 25.34 -5.1 22.7 55 -12.9 8.8
23:10 1029 30.39 858 25.34 -5.2 22.7 55 -12.8 9
23:15 1029 30.39 858 25.34 -5.3 22.5 56 -12.8 9
23:20 1029 30.39 858 25.34 -5.4 22.4 57 -12.5 9.4
23:25 1029 30.39 858 25.34 -5.6 22 56 -12.9 8.7
23:30 1029 30.39 858 25.34 -5.8 21.6 57 -12.9 8.7
23:35 1029 30.39 858 25.34 -5.9 21.3 58 -12.9 8.8
23:40 1029 30.39 858 25.34 -5.9 21.3 60 -12.5 9.5
23:45 1029 30.39 858 25.34 -6 21.2 59 -12.7 9.1
23:50 1029 30.39 858 25.34 -6 21.2 61 -12.3 9.8
23:55 1029 30.39 858 25.34 -5.9 21.4 59 -12.7 9.1
24:00 1029 30.39 858 25.34 -6.2 20.9 60 -12.8 9